STARLINK-3865

decayed
NORAD ID: 52460 Int'l Des: 2022-049 Owner: SPXS Country: US Constellation: starlink
LEOCIRCULAR

关于 STARLINK-3865

正在加载描述...

高度历史

Altitude vs Time

uPlot chart will show altitude changes over time

两行轨道根数

1 52460U 22049K 24366.93997044 .15951714 12574-4 31360-3 0 9992
2 52460 53.2004 179.4614 0001697 325.8457 158.1032 16.47264374147389
Epoch: Dec 31, 2024 • Age: 6197 hours

当前状态

Position data unavailable
发射日期 May 6, 2022
运行时间 3.3 years
衰减日期 Jan 1, 2025
类型 internet

技术详情

分类 Payload
质量 297.00 kg
干质量 220.00 kg
总质量 297.00 kg
长度 0.20 m
直径 2.80 m
跨度 9.00 m
形状 Box + pan
制造商 SPXS
平台类型 Starlink
阶段状态 Unknown Transfer Status
所有者/国家 SPXS/US

大型星座

Loading constellations...